Showing default

NOVASAR 1, 43619

Orbit data source: Space-Track

NOVASAR 1, 43619 is a payload satellite owned by SSTL (Astrium) (UK) in SSO that was launched on Sun, 16 Sep 2018 UTC via a PSLV launch vehicle from the Sirharikota (SRI). Payload-class satellites include a variety of spacecraft equipped with specific instruments for various scientific and technological missions. These include communications satellites like Starlink; space stations such as the ISS; scientific satellites like the Hubble; Earth observation satellites from companies like Planet Labs, Umbra, and HawkEye 360; GPS; miniature CubeSats for education and research; and military/defense satellites.

Loading next visibility...
Identifier
43619, 2018-071B
Orbit
SSO
Country
Flag of UKUK
Related business
Manufacturer
SSTL (Astrium)
Mission
Operational Commercial Imaging
Bus & Motor
NOVASAR-S, XE
Mass
445 kg wet, 400 kg dry
Launch date (UTC)
2018-09-16 (8 years ago)
Launch vehicle
PSLV
Launch site
Sirharikota (SRI)
Object type
Payload
Rocket body
Debris
Shape & HBR
Tri Box, 1.5 m
Radar Cross Section
3.500 m², Large (>1 m²)

Expand to show TLE details & history
Last TLE update: 1 day ago

TLE from 1 day ago
0 NOVASAR 1
1 43619U 18071B   26172.53498987  .00001046  00000-0  97530-4 0  9990
2 43619  97.5059  44.6763 0002311  80.5778 279.5705 14.96252030423581
Epoch: 2026-06-21T12:50Z
TLE epoch observation values (Epoch: 2026-06-21T12:50:23.124Z)
Latitude
-0.00005°
Longitude
-57.65391°
Altitude
581.277 km
Speed
7.57 km/s
True Right ascension
02h 58m 42s
True Declination
0° 00' 00"
Sunlit
Object was in daylight at epoch
Visualization orbit readout
Latitude
Unknown
Longitude
Unknown
Altitude
Unknown
Speed
Unknown
Apparent Right ascension
Unknown
Apparent Declination
Unknown
Sunlit
N/A
Visualization observer readout
Local Sidereal Time
23:27:15
Azimuth
Unknown
Elevation
Unknown
Doppler factor
Unknown
Orbital elements
Apogee altitude
577.098 km
Perigee altitude
573.884 km
Semi-major axis
6,953.628 km
Eccentricity
0.00023
Inclination
97.5059°
RAAN
44.6763°
Arg. of periapsis
80.5778°
True anomaly
279.54439°
Mean anomaly
279.5705°
Eccentric anomaly
279.55744°
Mean motion
3.74305 °/min
Orbital period
96.18 mins
BSTAR
0.00009753
Loading maneuver chart data...
Computing Atmospheric mass density...
Loading historical data...
Loading historical data...
Loading historical data...
Loading historical data...
Loading historical data...
Loading historical data...
Loading historical data...
Other satellites on launch #71 in the year 2018 (2018-09-16 UTC)

Documentation

Showing up to 5 results
|